[[{"header":{"parameterUnit":"m.s-1","parameterCategory":1,"la1":30.2991,"la2":30.254,"lo1":-89.0895,"lo2":-89.0444,"dy":0.0017,"dx":0.0017,"nx":28,"ny":28,"refTime":"2024-05-20T21:00:00:Z","depth":0,"parameterNumber":2,"parameterNumberName":"U-component_of_WINDS"},"data":[0,0,0,0,0,0,0,0,0,0,0,0,0,0,0,0,0,0,0,0,0,0,0,0,0,0,0,0,0,0,0,0,0,0,0,0,0,0,0,0,0,0,0,0,0,0,0,0,0,0,0,0,0,0,0,0,0,0,-2.7421,-2.7422,0,-2.747,-2.7471,-2.7472,-2.7455,-2.7454,-2.7453,-2.7452,-2.7503,-2.7505,-2.7507,0,0,0,0,0,0,0,0,0,0,0,0,0,-2.7314,-2.7316,-2.7421,-2.7422,-2.7422,-2.747,-2.7471,-2.7472,-2.7456,-2.7454,-2.7453,-2.7452,-2.7502,-2.7505,-2.7508,0,0,0,0,0,0,0,0,0,0,0,0,0,-2.7361,-2.7316,-2.7421,-2.742,-2.7421,-2.747,-2.7471,-2.7472,-2.7456,-2.7454,-2.7453,-2.7451,-2.7501,-2.7505,-2.7508,-2.7562,0,0,-2.7519,-2.752,0,0,0,0,0,0,0,0,-2.7359,-2.7365,-2.742,-2.742,-2.7421,-2.7455,-2.7452,-2.7502,-2.7456,-2.7442,-2.7452,-2.745,-2.7488,-2.7493,-2.7505,-2.7564,-2.7566,-2.7519,-2.7521,-2.7523,-2.7524,0,0,0,0,0,0,0,-2.7355,-2.7363,-2.7441,-2.742,-2.7421,-2.7417,-2.7422,-2.7461,-2.7474,-2.7443,-2.7442,-2.7448,-2.7488,-2.7502,-2.7507,-2.7567,-2.7519,-2.7522,-2.7524,-2.7526,-2.7672,-2.7673,0,0,0,0,0,0,-2.7352,-2.736,-2.7439,-2.7442,-2.7385,-2.7421,-2.7426,-2.7446,-2.7473,-2.7476,-2.745,-2.7448,-2.7497,-2.7502,-2.7508,-2.7572,-2.7523,-2.7526,-2.7528,-2.767,-2.7672,-2.7674,0,0,0,0,0,0,-2.7349,-2.7359,-2.7437,-2.7401,-2.7411,-2.7424,-2.7446,-2.7448,-2.7461,-2.7478,-2.748,-2.7462,-2.7496,-2.7503,-2.7548,-2.7574,-2.7528,-2.7531,-2.7668,-2.7671,-2.7673,-2.7701,0,0,0,0,0,0,-2.7346,-2.7358,-2.7379,-2.7402,-2.7413,-2.7477,-2.7448,-2.745,-2.7467,-2.7465,-2.749,-2.7492,-2.7495,-2.7543,-2.7552,-2.7578,-2.7534,-2.7666,-2.7669,-2.7672,-2.7698,-2.7705,-2.771,0,0,0,0,0,-2.7343,-2.7385,-2.738,-2.7389,-2.7439,-2.7478,-2.7484,-2.7487,-2.747,-2.749,-2.7501,-2.7491,-2.757,-2.7548,-2.7558,-2.7585,-2.7664,-2.7668,-2.7672,-2.7696,-2.7703,-2.771,0,0,0,0,0,0,-2.7365,-2.7388,-2.7382,-2.7433,-2.7454,-2.7475,-2.7501,-2.7495,-2.7521,-2.7518,-2.752,-2.7526,-2.7572,-2.7583,-2.7558,-2.7638,-2.7614,-2.7621,-2.7629,-2.7637,-2.7643,-2.7638,-2.7536,0,0,0,0,0,-2.7375,-2.7405,-2.7424,-2.7467,-2.7478,-2.7488,-2.7505,-2.7505,-2.7527,-2.7535,-2.7549,-2.757,-2.76,-2.7619,-2.7647,-2.77,-2.7705,-2.7724,-2.773,-2.7735,-2.774,-2.7768,-2.7776,-2.7687,-2.7687,-2.7687,0,0,-2.7398,-2.7414,-2.7433,-2.7472,-2.7488,-2.7519,-2.7495,-2.7529,-2.7552,-2.754,-2.7583,-2.7595,-2.7618,-2.7668,-2.769,-2.7678,-2.7765,-2.774,-2.7743,-2.7746,-2.7773,-2.7781,-2.7789,-2.769,-2.7689,-2.7689,0,0,-2.7454,-2.747,-2.7507,-2.7524,-2.7548,-2.7554,-2.7564,-2.7586,-2.7593,-2.7636,-2.7628,-2.7656,-2.7706,-2.7723,-2.7739,-2.7802,-2.7794,-2.7811,-2.7842,-2.787,-2.7877,-2.7883,-2.7905,-2.7913,-2.7816,-2.7816,-2.7816,0,-2.7479,-2.7525,-2.7527,-2.7562,-2.7579,-2.757,-2.7608,-2.7624,-2.7656,-2.7668,-2.7655,-2.7718,-2.7733,-2.7786,-2.7802,-2.7815,-2.7825,-2.7808,-2.7876,-2.7882,-2.7888,-2.7908,-2.7917,-2.7818,-2.7818,-2.7818,-2.7818,0,-2.7554,-2.7587,-2.7614,-2.7645,-2.7665,-2.7701,-2.7709,-2.7729,-2.7728,-2.7736,-2.778,-2.7798,-2.7829,-2.7842,-2.7841,-2.7895,-2.7887,-2.7875,-2.7851,-2.7898,-2.7917,-2.7926,-2.7821,-2.782,-2.782,-2.7819,0,0,-2.7626,-2.7657,-2.7667,-2.7681,-2.7707,-2.7732,-2.7768,-2.7798,-2.7815,-2.7838,-2.7868,-2.7911,-2.79,-2.7917,-2.7918,-2.7943,-2.7991,-2.7927,-2.7928,-2.7938,-2.805,-2.8058,-2.8067,-2.7986,-2.7987,-2.7989,-2.8048,0,-2.7684,-2.7746,-2.7749,-2.7805,-2.7835,-2.7827,-2.7857,-2.7877,-2.7885,-2.7912,-2.7921,-2.7951,-2.7935,-2.7945,-2.7969,-2.798,-2.8013,-2.7976,-2.8013,-2.8014,-2.8006,-2.8078,-2.8087,-2.8142,-2.8055,-2.8057,-2.8058,0,-2.776,-2.7784,-2.7844,-2.7865,-2.7878,-2.7905,-2.7933,-2.7959,-2.798,-2.7985,-2.8004,-2.8002,-2.8038,-2.8014,-2.8063,-2.8038,-2.8054,-2.8061,-2.8063,-2.8066,-2.8038,-2.8082,-2.8159,-2.8167,-2.807,-2.8069,-2.8068,0,-2.7805,-2.7853,-2.7894,-2.7907,-2.7933,-2.7952,-2.7964,-2.7985,-2.8003,-2.8027,-2.8039,-2.8068,-2.8083,-2.8106,-2.8111,-2.8092,-2.816,-2.8136,-2.8165,-2.8165,-2.8179,-2.8177,-2.8259,-2.819,-2.819,-2.819,-2.819,0,-2.7869,-2.7906,-2.7915,-2.794,-2.7981,-2.7984,-2.8024,-2.8035,-2.8053,-2.808,-2.8075,-2.8101,-2.8107,-2.8134,-2.8138,-2.8179,-2.8186,-2.819,-2.8191,-2.819,-2.8189,-2.82,-2.8196,-2.8192,-2.8192,-2.8191,-2.8191,0,-2.7926,-2.7934,-2.7978,-2.8,-2.8006,-2.8035,-2.8053,-2.8077,-2.8085,-2.812,-2.8128,-2.814,-2.8172,-2.818,-2.8217,-2.822,-2.8268,-2.8265,-2.826,-2.826,-2.8287,-2.8284,-2.8377,-2.8389,-2.8314,-2.8314,-2.8315,0,-2.7966,-2.7994,-2.8018,-2.8035,-2.8048,-2.8077,-2.8095,-2.8099,-2.8119,-2.8145,-2.8166,-2.8197,-2.8222,-2.8273,-2.8285,-2.8314,-2.8312,-2.8342,-2.8316,-2.8314,-2.8311,-2.8309,-2.8311,-2.8347,-2.8348,-2.8348,-2.8349,0,-2.8036,-2.8038,-2.8065,-2.8092,-2.8114,-2.8136,-2.8157,-2.8172,-2.8179,-2.8201,-2.8233,-2.8252,-2.829,-2.8321,-2.835,-2.8362,-2.8357,-2.8357,-2.8365,-2.8364,-2.836,-2.8362,-2.8273,-2.8355,-2.8354,-2.8354,-2.8354,-2.8353,-2.8085,-2.8109,-2.8129,-2.8159,-2.8175,-2.8195,-2.8218,-2.8229,-2.8256,-2.8287,-2.8288,-2.8322,-2.8343,-2.8381,-2.8396,-2.8423,-2.8413,-2.8425,-2.8428,-2.8431,-2.8432,-2.8356,-2.8428,-2.8428,-2.8428,-2.8428,-2.8428,0,-2.8154,-2.8167,-2.8194,-2.8223,-2.8246,-2.8239,-2.8262,-2.8281,-2.8312,-2.8332,-2.8356,-2.8392,-2.8422,-2.8437,-2.8466,-2.8485,-2.8483,-2.8493,-2.8491,-2.8494,-2.844,-2.8429,-2.8493,-2.8493,-2.8493,-2.8493,-2.8493,-2.8493,-2.8193,-2.8233,-2.8237,-2.8285,-2.8298,-2.8331,-2.8345,-2.8363,-2.8378,-2.8419,-2.8444,-2.8453,-2.8471,-2.8501,-2.8528,-2.8532,-2.8542,-2.8553,-2.8555,-2.8504,-2.8497,-2.8491,-2.8481,-2.8555,-2.8555,-2.8607,-2.8607,-2.8607]},{"header":{"parameterUnit":"m.s-1","parameterCategory":1,"la1":30.2991,"la2":30.254,"lo1":-89.0895,"lo2":-89.0444,"dy":0.0017,"dx":0.0017,"nx":28,"ny":28,"refTime":"2024-05-20T21:00:00:Z","depth":0,"parameterNumber":3,"parameterNumberName":"V-component_of_WINDS"},"data":[0,0,0,0,0,0,0,0,0,0,0,0,0,0,0,0,0,0,0,0,0,0,0,0,0,0,0,0,0,0,0,0,0,0,0,0,0,0,0,0,0,0,0,0,0,0,0,0,0,0,0,0,0,0,0,0,0,0,3.5009,3.5009,0,3.5023,3.5023,3.5024,3.4984,3.4983,3.4982,3.4981,3.4994,3.4995,3.4996,0,0,0,0,0,0,0,0,0,0,0,0,0,3.4945,3.4947,3.5009,3.5009,3.5009,3.5023,3.5023,3.5024,3.4985,3.4983,3.4982,3.498,3.4993,3.4995,3.4997,0,0,0,0,0,0,0,0,0,0,0,0,0,3.4968,3.4947,3.5009,3.4991,3.499,3.5023,3.5023,3.5024,3.4985,3.4983,3.4981,3.498,3.4993,3.4995,3.4997,3.5047,0,0,3.5004,3.5005,0,0,0,0,0,0,0,0,3.4966,3.497,3.4994,3.4993,3.4991,3.5,3.5006,3.5031,3.4985,3.4987,3.4981,3.4979,3.4997,3.4999,3.5005,3.5047,3.5048,3.5004,3.5005,3.5006,3.5007,0,0,0,0,0,0,0,3.4965,3.4969,3.5014,3.4994,3.4993,3.4982,3.4983,3.501,3.5002,3.4987,3.4984,3.4986,3.4996,3.5003,3.5005,3.5048,3.5004,3.5006,3.5007,3.5008,3.5132,3.5134,0,0,0,0,0,0,3.4966,3.4968,3.5014,3.5015,3.4974,3.4985,3.4986,3.4999,3.5002,3.5,3.4988,3.4984,3.5001,3.5003,3.5006,3.5064,3.5006,3.5008,3.5009,3.513,3.5132,3.5134,0,0,0,0,0,0,3.4965,3.497,3.5013,3.4991,3.4995,3.4988,3.5003,3.5,3.5008,3.5002,3.5,3.4997,3.4999,3.5003,3.5037,3.5064,3.5009,3.5011,3.5127,3.5131,3.5133,3.5182,0,0,0,0,0,0,3.4963,3.497,3.499,3.4992,3.4997,3.5045,3.5004,3.5002,3.5012,3.5008,3.5011,3.5009,3.4998,3.5034,3.5039,3.5066,3.5013,3.5125,3.5129,3.5132,3.5178,3.5186,3.5193,0,0,0,0,0,3.4961,3.5002,3.4991,3.4996,3.5021,3.5047,3.505,3.5036,3.5014,3.5033,3.503,3.5009,3.5061,3.5038,3.5043,3.5072,3.5123,3.5128,3.5132,3.5174,3.5185,3.5193,0,0,0,0,0,0,3.5003,3.5002,3.4989,3.5033,3.504,3.504,3.5064,3.5048,3.5061,3.5056,3.5039,3.504,3.5077,3.5078,3.5053,3.512,3.5088,3.5094,3.5118,3.5128,3.5136,3.5134,3.5015,0,0,0,0,0,3.5017,3.5039,3.5037,3.5075,3.508,3.5071,3.5082,3.5071,3.5078,3.5081,3.508,3.5087,3.5104,3.5116,3.5132,3.5178,3.5178,3.52,3.5208,3.5214,3.5219,3.5243,3.5253,3.5149,3.5149,3.5149,0,0,3.5046,3.5049,3.5063,3.5083,3.5088,3.511,3.5074,3.5099,3.5115,3.5084,3.5117,3.5117,3.5123,3.5163,3.5181,3.5165,3.5248,3.522,3.5225,3.5227,3.5249,3.5259,3.5268,3.5152,3.5151,3.5151,0,0,3.5112,3.5116,3.5148,3.5154,3.5162,3.5156,3.5164,3.5166,3.5165,3.5198,3.5175,3.5194,3.5225,3.523,3.5237,3.5305,3.5287,3.5311,3.5351,3.5375,3.5383,3.5391,3.5415,3.5423,3.5316,3.5316,3.5316,0,3.5147,3.518,3.5167,3.5194,3.5203,3.5177,3.5209,3.5215,3.5228,3.5234,3.5216,3.5255,3.5257,3.5299,3.5315,3.5322,3.533,3.531,3.5383,3.539,3.5397,3.542,3.5429,3.5319,3.5319,3.5319,3.5318,0,3.5224,3.5247,3.5272,3.5286,3.5298,3.5327,3.5318,3.5332,3.532,3.5316,3.535,3.5352,3.5368,3.5377,3.5366,3.5417,3.5407,3.5386,3.5354,3.541,3.5431,3.544,3.5323,3.5322,3.5321,3.5321,0,0,3.5315,3.5321,3.533,3.5336,3.5343,3.5361,3.5389,3.5406,3.5418,3.5427,3.545,3.5477,3.5459,3.5466,3.5456,3.5477,3.553,3.5454,3.5453,3.5467,3.5587,3.5602,3.5612,3.5518,3.552,3.5521,3.5586,0,3.5379,3.5428,3.5417,3.5465,3.5487,3.5463,3.5487,3.5494,3.5491,3.5508,3.5505,3.5524,3.5498,3.5503,3.5523,3.552,3.5554,3.5515,3.5539,3.554,3.5538,3.5623,3.5639,3.57,3.5594,3.5596,3.5597,0,3.546,3.5474,3.5525,3.5529,3.5537,3.5559,3.5574,3.5591,3.5598,3.5594,3.5603,3.5589,3.5616,3.5584,3.5621,3.5595,3.5604,3.5604,3.5606,3.5607,3.5571,3.5626,3.5719,3.5728,3.5609,3.5608,3.5607,0,3.5521,3.5552,3.5587,3.5593,3.5598,3.5614,3.5617,3.5622,3.5633,3.5645,3.5652,3.5667,3.5676,3.5687,3.5677,3.5654,3.5716,3.5683,3.5713,3.5714,3.5727,3.5726,3.5822,3.5734,3.5733,3.5733,3.5733,0,3.5594,3.5626,3.5614,3.5635,3.567,3.5657,3.5692,3.5692,3.5697,3.5717,3.5697,3.5716,3.5702,3.572,3.5711,3.5743,3.5747,3.5745,3.5742,3.5746,3.5747,3.5752,3.5747,3.5736,3.5735,3.5735,3.5734,0,3.5668,3.5662,3.5697,3.57,3.5701,3.5727,3.5729,3.5748,3.5744,3.577,3.5775,3.5769,3.5789,3.578,3.5801,3.5795,3.5837,3.5828,3.5835,3.5832,3.5863,3.586,3.5965,3.5978,3.5882,3.5883,3.5884,0,3.5715,3.5739,3.5744,3.5757,3.5761,3.5782,3.5793,3.5781,3.5793,3.5803,3.5821,3.584,3.5854,3.5887,3.5884,3.59,3.5891,3.5927,3.5894,3.5897,3.5892,3.589,3.5892,3.5934,3.5935,3.5936,3.5937,0,3.5798,3.5794,3.5811,3.5828,3.5842,3.5854,3.5864,3.5875,3.5863,3.5878,3.5899,3.591,3.5932,3.595,3.5964,3.5966,3.595,3.5947,3.5955,3.596,3.5962,3.5961,3.5852,3.5945,3.5944,3.5943,3.5943,3.5943,3.5859,3.588,3.5887,3.5907,3.5914,3.5924,3.5942,3.5941,3.5958,3.5976,3.5967,3.5991,3.5998,3.6015,3.6019,3.6038,3.6023,3.6035,3.6038,3.6041,3.6045,3.596,3.604,3.604,3.604,3.6039,3.6039,0,3.5942,3.5945,3.5964,3.5979,3.5995,3.5979,3.5989,3.6003,3.6025,3.6033,3.6047,3.6071,3.6089,3.6088,3.6104,3.6119,3.6112,3.6124,3.6122,3.6123,3.6056,3.6048,3.6129,3.6129,3.6129,3.6129,3.6129,3.6129,3.5986,3.602,3.6017,3.6053,3.6057,3.6081,3.6088,3.6097,3.6103,3.6131,3.6146,3.6146,3.6149,3.6166,3.6182,3.6181,3.6188,3.6202,3.6199,3.6137,3.6128,3.6119,3.6111,3.6204,3.6204,3.6263,3.6264,3.6264]}]]